DL9NDS-13 Weather Reports


Display with metric or nautical units.
time (UTC)temp
F
wind
direction
speed
MPH
gust
MPH
rain 1hr
in
rain 24hr
in
rain mn
in
humidity
%
barometer
mb
20260505065705 63 87 0.0 2.0 0.00 0.00 0.00 77 1008.7
20260505065205 63 134 0.0 2.0 0.00 0.00 0.00 78 1008.7
20260505064705 62 135 0.0 1.0 0.00 0.00 0.00 79 1008.7
20260505063205 61 32 0.0 0.0 0.00 0.00 0.00 79 1008.7
20260505062708 61 13 0.0 0.0 0.00 0.00 0.00 81 1008.7
20260505062205 61 13 0.0 4.0 0.00 0.00 0.00 81 1008.8
20260505061705 61 13 0.0 4.0 0.00 0.00 0.00 80 1008.8
20260505061205 61 14 1.0 4.0 0.00 0.00 0.00 81 1008.8
20260505060208 60 104 0.0 0.0 0.00 0.00 0.00 83 1008.8
20260505055705 60 107 0.0 0.0 0.00 0.00 0.00 86 1008.8
20260505055205 59 10 0.0 0.0 0.00 0.00 0.00 87 1008.9
20260505054705 58 10 0.0 1.0 0.00 0.00 0.00 87 1008.9
20260505054205 58 10 0.0 1.0 0.00 0.00 0.00 87 1008.8
20260505053205 58 63 0.0 4.0 0.00 0.00 0.00 89 1008.9
20260505052705 57 63 0.0 4.0 0.00 0.00 0.00 89 1008.8
20260505052205 57 63 0.0 1.0 0.00 0.00 0.00 90 1008.8
20260505051227 56 46 0.0 5.0 0.00 0.00 0.00 91 1008.8
20260505050705 55 46 0.0 0.0 0.00 0.00 0.00 91 1008.7
20260505050216 55 302 0.0 0.0 0.00 0.00 0.00 91 1008.8
20260505041706 56 302 0.0 0.0 0.00 0.00 0.00 90 1008.9
20260505041212 56 302 0.0 0.0 0.00 0.00 0.00 90 1009.0
20260505040705 56 302 0.0 0.0 0.00 0.00 0.00 90 1008.9
20260505040209 56 302 0.0 0.0 0.00 0.00 0.00 90 1009.0
20260505035725 56 302 0.0 0.0 0.00 0.00 0.00 90 1009.1
20260505035234 56 302 0.0 0.0 0.00 0.00 0.00 90 1009.1
20260505034708 56 302 0.0 0.0 0.00 0.00 0.00 90 1009.2
20260505034212 56 302 0.0 0.0 0.00 0.00 0.00 90 1009.2
20260505033710 56 302 0.0 0.0 0.00 0.00 0.00 90 1009.3
20260505033211 56 302 0.0 0.0 0.00 0.00 0.00 90 1009.2
20260505032707 56 302 0.0 0.0 0.00 0.00 0.00 90 1009.2
20260505031710 56 355 0.0 0.0 0.00 0.00 0.00 90 1009.3
20260505031221 56 355 0.0 0.0 0.00 0.00 0.00 90 1009.3
20260505030706 56 355 0.0 0.0 0.00 0.00 0.00 90 1009.3
20260505030205 56 355 0.0 0.0 0.00 0.00 0.00 90 1009.2
20260505025846 56 355 0.0 0.0 0.00 0.00 0.00 89 1009.3
20260505025748 57 355 0.0 0.0 0.00 0.00 0.00 89 1009.4
20260505025744 56 355 0.0 0.0 0.00 0.00 0.00 89 1009.3
20260505024205 57 355 0.0 0.0 0.00 0.00 0.00 89 1009.4
20260505023205 57 355 0.0 0.0 0.00 0.00 0.00 89 1009.6
20260505022706 57 355 0.0 0.0 0.00 0.00 0.00 89 1009.7
20260505022205 57 351 0.0 0.0 0.00 0.00 0.00 89 1009.9
20260505021705 57 351 0.0 0.0 0.00 0.00 0.00 88 1010.1
20260505021205 57 351 0.0 0.0 0.00 0.00 0.00 88 1010.2
20260505020705 57 355 0.0 0.0 0.00 0.00 0.00 88 1010.3
20260505020205 57 355 0.0 0.0 0.00 0.00 0.00 88 1010.3
20260505015705 57 321 0.0 0.0 0.00 0.00 0.00 88 1010.4
20260505014705 58 355 0.0 0.0 0.00 0.00 0.00 87 1010.3
20260505013205 58 355 0.0 0.0 0.00 0.00 0.00 87 1010.3
20260505012705 58 355 0.0 0.0 0.00 0.00 0.00 86 1010.4
20260505012205 58 355 0.0 0.0 0.00 0.00 0.00 86 1010.4
20260505011705 58 355 0.0 0.0 0.00 0.00 0.00 86 1010.3
20260505011205 58 355 0.0 0.0 0.00 0.00 0.00 86 1010.3
20260505010205 57 355 0.0 0.0 0.00 0.00 0.00 86 1010.3
20260505005705 57 355 0.0 0.0 0.00 0.00 0.00 86 1010.2
20260505005205 57 355 0.0 0.0 0.00 0.00 0.00 86 1010.2
20260505004705 57 355 0.0 0.0 0.00 0.00 0.00 85 1010.3
20260505004205 57 355 0.0 0.0 0.00 0.00 0.00 85 1010.3
20260505003705 57 355 0.0 0.0 0.00 0.00 0.00 85 1010.3
20260505003205 57 355 0.0 0.0 0.00 0.00 0.00 85 1010.3
20260505002205 57 355 0.0 0.0 0.00 0.00 0.00 86 1010.4
20260505001705 57 355 0.0 0.0 0.00 0.00 0.00 86 1010.4
20260505001205 57 355 0.0 0.0 0.00 0.00 0.00 86 1010.4
20260505000205 57 355 0.0 0.0 0.00 0.00 0.00 86 1010.4
20260504235705 57 355 0.0 0.0 0.00 0.00 0.00 85 1010.4
20260504234705 57 355 0.0 0.0 0.00 0.00 0.00 85 1010.4
20260504234205 57 355 0.0 0.0 0.00 0.00 0.00 85 1010.5
20260504233705 57 355 0.0 0.0 0.00 0.00 0.00 85 1010.6
20260504232704 57 355 0.0 0.0 0.00 0.00 0.00 85 1010.6
20260504232205 57 355 0.0 0.0 0.00 0.00 0.00 85 1010.7
20260504231725 57 355 0.0 0.0 0.00 0.00 0.00 85 1010.7
20260504231205 57 355 0.0 0.0 0.00 0.00 0.00 85 1010.7
20260504230705 57 320 0.0 0.0 0.00 0.00 0.00 85 1010.9
20260504230206 57 320 0.0 0.0 0.00 0.00 0.00 84 1010.9
20260504224206 57 320 0.0 0.0 0.00 0.00 0.00 84 1011.0
20260504223705 57 320 0.0 0.0 0.00 0.00 0.00 84 1011.0
20260504222705 57 320 0.0 0.0 0.00 0.00 0.00 84 1011.1
20260504221722 57 320 0.0 0.0 0.00 0.00 0.00 84 1011.0
20260504220705 57 319 0.0 0.0 0.00 0.00 0.00 84 1011.2
20260504220205 57 320 0.0 0.0 0.00 0.00 0.00 84 1011.1
20260504215705 57 319 0.0 0.0 0.00 0.00 0.00 84 1011.1
20260504214705 57 320 0.0 0.0 0.00 0.00 0.00 84 1011.2
20260504214205 57 320 0.0 0.0 0.00 0.00 0.00 83 1011.2
20260504213705 58 320 0.0 0.0 0.00 0.00 0.00 83 1011.1
20260504213206 58 320 0.0 0.0 0.00 0.00 0.00 83 1011.1
20260504212205 58 320 0.0 0.0 0.00 0.00 0.00 82 1011.1
20260504211205 58 320 0.0 0.0 0.00 0.00 0.00 82 1011.1
20260504210705 58 320 0.0 0.0 0.00 0.00 0.00 82 1011.1
20260504210205 58 320 0.0 0.0 0.00 0.00 0.00 82 1011.1
20260504205705 58 320 0.0 0.0 0.00 0.00 0.00 81 1011.2
20260504205206 58 320 0.0 0.0 0.00 0.00 0.00 81 1011.1
20260504204705 59 320 0.0 0.0 0.00 0.00 0.00 81 1011.1
20260504204205 59 320 0.0 0.0 0.00 0.00 0.00 80 1011.1
20260504203706 59 320 0.0 0.0 0.00 0.00 0.00 80 1011.1
20260504203206 59 320 0.0 0.0 0.00 0.00 0.00 79 1011.2
20260504202205 60 320 0.0 0.0 0.00 0.00 0.00 79 1011.2
20260504201704 60 320 0.0 0.0 0.00 0.00 0.00 79 1011.2
20260504201229 60 320 0.0 0.0 0.00 0.00 0.00 78 1011.2
20260504200705 60 320 0.0 0.0 0.00 0.00 0.00 78 1011.3
20260504200205 60 320 0.0 0.0 0.00 0.00 0.00 78 1011.3
20260504195205 61 320 0.0 0.0 0.00 0.00 0.00 77 1011.3
20260504194207 61 320 0.0 0.0 0.00 0.00 0.00 75 1011.3
20260504193706 61 320 0.0 0.0 0.00 0.00 0.00 75 1011.3
20260504193205 61 320 0.0 0.0 0.00 0.00 0.00 75 1011.3
20260504192705 62 320 0.0 0.0 0.00 0.00 0.00 74 1011.3
20260504192205 62 320 0.0 0.0 0.00 0.00 0.00 74 1011.3
20260504191705 62 320 0.0 0.0 0.00 0.00 0.00 73 1011.2
20260504191205 62 320 0.0 0.0 0.00 0.00 0.00 72 1011.2
20260504190705 63 320 0.0 0.0 0.00 0.00 0.00 71 1011.1
20260504190205 63 320 0.0 0.0 0.00 0.00 0.00 71 1011.1
20260504185706 63 320 0.0 0.0 0.00 0.00 0.00 70 1011.1
20260504185206 64 320 0.0 0.0 0.00 0.00 0.00 69 1011.1
20260504184708 64 320 0.0 0.0 0.00 0.00 0.00 69 1011.1
20260504184205 65 320 0.0 0.0 0.00 0.00 0.00 69 1011.1
20260504183705 65 320 0.0 0.0 0.00 0.00 0.00 68 1011.1
20260504183206 65 320 0.0 0.0 0.00 0.00 0.00 65 1011.1
20260504182705 66 320 0.0 0.0 0.00 0.00 0.00 65 1011.1
20260504182205 66 320 0.0 0.0 0.00 0.00 0.00 64 1011.2
20260504181205 67 320 0.0 0.0 0.00 0.00 0.00 63 1011.2
20260504180705 68 320 0.0 0.0 0.00 0.00 0.00 61 1011.2
20260504180205 68 320 0.0 0.0 0.00 0.00 0.00 60 1011.2
20260504175705 68 320 0.0 0.0 0.00 0.00 0.00 60 1011.2
20260504175205 69 320 0.0 0.0 0.00 0.00 0.00 58 1011.1
20260504174705 69 320 0.0 0.0 0.00 0.00 0.00 55 1011.2
20260504174205 69 320 0.0 0.0 0.00 0.00 0.00 54 1011.2
20260504173205 70 320 0.0 0.0 0.00 0.00 0.00 52 1011.1
20260504172704 70 320 0.0 0.0 0.00 0.00 0.00 53 1011.1
20260504172206 70 320 0.0 0.0 0.00 0.00 0.00 53 1011.1
20260504171705 70 320 0.0 0.0 0.00 0.00 0.00 53 1011.1
20260504171205 70 321 0.0 4.0 0.00 0.00 0.00 52 1011.1
20260504170704 71 322 0.0 5.0 0.00 0.00 0.00 52 1011.1
20260504160205 72 284 1.0 6.0 0.00 0.00 0.00 50 1011.3
20260504150705 73 342 0.0 6.0 0.00 0.00 0.00 50 1011.5
20260504150205 72 279 1.0 7.0 0.00 0.00 0.00 47 1011.5
20260504141224 73 278 2.0 7.0 0.00 0.00 0.00 45 1011.7
20260504140705 73 309 2.0 9.0 0.00 0.00 0.00 47 1011.7
20260504140205 74 319 2.0 9.0 0.00 0.00 0.00 45 1011.7
20260504130205 74 341 3.0 10.0 0.00 0.00 0.00 45 1012.3
20260504120205 72 0 3.0 9.0 0.00 0.00 0.00 47 1012.8
20260504110705 71 282 3.0 10.0 0.00 0.00 0.00 46 1013.2
20260504100205 69 271 0.0 3.0 0.00 0.00 0.00 49 1013.8
20260504081705 68 327 3.0 14.0 0.00 0.00 0.00 55 1014.4
20260504081206 68 260 3.0 14.0 0.00 0.00 0.00 50 1014.4
20260504080705 68 320 2.0 8.0 0.00 0.00 0.00 49 1014.4
20260504080205 68 281 2.0 8.0 0.00 0.00 0.00 49 1014.3